Temperature
19 19 19 19 18 17 19 19 19 19 19 19 19 19 18 18 18 18 17 18 18 18 18 18 18 18 18 18 18 18 18 18 18 18 18 18 18 18 17 17 18 18 18 18 18 18 18 18 18
19 19 20 19 17 18 19 19 19 20 20 20 19 19 18 17 17 17 17 17 17 18 18 18 18 18 18 18 18 18 18 18 18 18 18 17 17 17 17 17 17 17 17 17 17 17 17 17 17
20 20 19 17 18 18 19 19 19 20 20 20 19 18 18 17 17 18 18 17 17 18 18 18 18 18 18 18 18 18 18 18 18 18 17 17 17 17 17 17 17 17 17 17 17 17 17 17 17
20 20 19 17 19 19 19 19 19 20 20 19 18 17 17 17 18 18 18 17 17 17 18 17 17 17 18 18 18 18 18 17 17 17 17 17 17 17 17 17 17 17 17 17 17 17 17 17 17
20 19 17 17 18 19 18 19 19 19 19 19 18 17 17 17 17 18 17 17 17 17 17 17 17 17 17 18 18 17 17 17 17 17 17 17 17 17 17 17 17 17 17 17 17 17 17 17 17
20 17 17 18 18 19 19 19 19 19 19 18 18 17 17 17 17 17 17 17 17 17 17 17 17 17 17 17 17 17 17 17 17 17 17 17 17 17 17 17 17 17 17 17 17 17 17 17 16
19 16 17 18 18 19 19 19 19 19 18 18 18 17 17 17 17 17 17 17 17 17 17 17 17 17 17 17 17 17 17 17 17 17 17 17 17 17 16 16 16 16 16 16 16 16 16 16 16
20 16 18 17 18 19 19 19 19 19 18 18 19 17 17 17 17 17 17 17 17 17 17 17 17 17 17 17 17 17 17 17 17 17 17 16 16 16 16 16 16 16 16 16 16 16 16 16 16
19 16 17 18 18 18 19 19 19 19 18 18 18 18 18 18 17 17 17 17 17 17 17 17 17 17 17 17 17 17 17 17 17 16 16 16 16 16 16 16 16 16 16 16 16 16 16 16 16
19 16 18 18 18 18 18 19 19 19 18 18 18 18 18 17 17 17 17 17 17 17 17 17 17 17 17 17 17 17 16 17 16 16 16 16 16 16 16 16 16 16 16 16 16 16 16 16 16
18 17 18 19 19 19 19 19 19 18 18 18 18 18 18 17 17 17 17 17 17 17 17 17 17 17 17 17 17 16 16 16 16 16 16 16 16 16 16 16 16 16 16 16 16 16 16 16 16
18 18 19 19 19 19 19 19 18 18 19 19 19 19 18 17 17 17 17 17 17 17 17 17 17 17 17 17 16 16 16 16 16 16 16 16 16 16 16 16 16 16 16 16 16 16 16 16 16
18 18 19 19 19 19 19 18 18 18 19 19 19 18 18 18 18 17 17 17 17 17 17 17 17 17 17 17 16 16 16 16 16 16 16 16 16 16 16 16 16 16 16 16 16 16 16 16 16
19 19 19 19 19 19 18 18 18 18 19 19 18 18 18 18 18 17 17 17 17 17 17 17 17 17 17 17 17 16 16 16 16 16 16 16 16 16 16 16 16 16 16 16 16 16 15 15 15
19 18 18 18 19 19 19 18 17 18 18 18 18 18 18 18 18 18 18 17 17 17 17 17 17 17 17 17 17 16 16 16 16 16 16 16 16 16 16 16 16 16 16 16 15 15 15 15 15
18 18 17 18 18 19 19 18 17 18 18 17 18 18 18 18 18 18 18 17 17 17 17 17 17 17 17 17 17 17 16 16 16 16 16 16 16 16 16 16 16 16 16 15 15 15 15 15 15
17 17 17 18 18 18 18 17 17 18 17 17 17 17 17 18 18 18 18 18 17 17 17 17 17 17 17 17 17 16 16 16 16 16 16 16 16 16 16 16 16 16 15 15 15 15 15 15 15
17 17 18 18 18 18 17 17 16 17 17 17 17 17 17 18 18 18 18 18 17 17 17 17 17 17 17 17 16 16 16 16 16 16 16 16 16 16 16 16 16 16 15 15 15 15 15 15 15
18 18 17 18 18 18 17 17 17 17 16 16 17 17 17 18 18 18 18 18 18 17 17 17 17 17 17 17 16 16 16 16 16 16 16 16 16 16 16 16 16 16 15 15 15 15 15 15 15
18 17 17 18 18 18 17 17 17 16 16 17 17 17 18 18 18 18 18 18 18 17 17 17 17 17 17 17 17 16 16 16 16 16 16 16 16 16 16 16 16 16 15 15 15 15 15 15 15
18 17 17 17 18 17 17 17 16 16 17 17 17 17 18 18 18 18 18 18 18 17 17 17 17 17 17 16 16 16 16 16 16 16 16 16 16 16 16 16 16 15 15 15 15 15 15 15 15
17 18 18 18 17 16 17 16 16 16 16 16 17 17 18 18 18 18 18 18 18 18 17 17 17 17 16 16 16 16 16 16 16 16 16 16 16 16 15 15 15 15 15 15 15 15 15 15 15
18 18 18 17 16 16 16 16 15 15 16 16 16 17 18 18 18 18 18 18 18 18 17 17 17 17 16 16 16 16 16 16 16 16 16 16 15 15 15 15 15 15 15 15 15 15 15 15 15
18 17 16 15 15 15 16 16 15 15 16 16 17 18 18 18 18 18 18 18 18 17 17 17 17 17 16 16 16 16 16 16 16 16 16 16 15 15 15 15 15 15 15 15 15 15 15 15 15
17 16 15 15 14 15 16 16 15 16 16 17 17 18 18 18 18 18 18 18 17 17 17 17 17 17 16 16 16 16 16 16 16 16 16 15 15 15 15 15 15 15 15 15 15 15 15 15 15
17 16 15 16 15 15 15 15 16 17 17 18 18 18 18 18 18 18 18 18 17 17 17 17 17 17 17 16 16 16 16 16 16 15 15 15 15 15 15 15 15 15 15 15 15 15 15 14 14
17 16 15 15 15 15 15 15 16 17 17 17 17 18 18 18 18 18 18 18 17 17 17 17 17 17 16 16 16 16 16 16 16 15 15 15 15 15 15 15 15 15 15 15 14 14 14 14 14
17 15 14 14 15 15 15 15 16 17 17 17 16 17 17 18 18 18 18 18 18 17 17 17 17 17 17 16 16 16 16 15 15 15 15 15 15 15 15 15 15 15 15 14 14 14 14 14 14
16 16 14 13 14 14 15 15 16 16 16 16 16 17 17 17 17 18 18 18 17 17 17 17 17 17 16 16 16 16 16 15 15 15 15 15 15 15 15 15 15 14 14 14 14 14 14 14 14
17 16 14 15 14 13 13 15 17 16 16 16 17 17 17 17 18 18 18 17 17 17 17 17 17 16 16 16 16 16 16 15 15 15 15 15 15 15 15 15 14 14 14 14 14 14 14 14 14
Wind_Speed
3 4 3 3 5 5 2 2 0 2 3 2 4 6 6 4 3 3 0 3 4 3 4 6 7 8 9 9 9 10 10 11 12 12 12 12 12 11 11 10 10 10 11 11 11 11 11 10 10
2 2 4 4 4 3 2 2 1 1 3 4 5 5 6 5 3 3 2 3 4 4 5 6 8 8 8 8 9 10 10 11 11 11 11 11 11 11 10 10 10 10 10 10 10 11 11 10 10
2 3 4 4 3 2 1 1 1 3 3 2 4 5 4 3 2 2 2 4 4 4 6 7 8 8 8 8 9 10 10 11 11 11 11 10 10 10 9 9 9 9 10 10 10 10 10 10 11
3 4 4 5 3 0 1 1 1 3 4 5 4 5 3 3 1 2 5 6 5 4 5 7 8 8 9 9 9 10 10 11 11 11 10 10 10 9 9 8 9 9 9 9 10 10 11 11 11
4 4 5 3 2 2 1 1 1 3 3 4 4 4 3 4 4 6 6 6 5 4 5 6 8 8 8 8 9 9 10 9 9 10 10 9 9 9 9 9 9 9 9 9 10 10 10 11 11
4 4 4 2 2 3 2 1 2 4 4 3 4 4 2 2 4 5 6 5 4 4 4 5 7 7 7 8 8 8 9 9 9 9 9 9 9 8 8 8 9 9 9 9 10 9 10 11 11
4 4 3 2 1 2 2 2 3 4 3 2 3 4 2 1 2 5 5 5 4 4 5 4 5 5 5 6 6 7 8 8 8 9 9 8 8 8 8 9 9 9 9 10 10 10 10 10 11
4 4 3 1 1 1 2 2 2 3 3 2 3 5 4 3 4 5 5 5 4 4 4 4 4 4 4 4 5 6 6 7 7 7 7 7 7 7 8 8 8 9 9 9 9 10 10 11 11
3 5 2 1 3 1 1 2 3 3 4 3 3 2 3 8 7 6 5 3 3 3 2 2 3 3 3 3 4 4 5 5 5 5 6 6 6 6 6 7 7 8 9 9 10 10 11 11 11
4 4 2 1 2 2 1 2 1 3 4 3 4 4 7 9 8 7 5 4 3 2 1 1 2 2 2 2 4 4 4 5 5 4 5 5 5 5 6 7 8 9 10 10 11 11 11 10 9
3 3 1 0 1 1 1 2 2 4 1 3 4 6 8 8 7 6 5 4 3 2 1 1 1 1 1 1 2 3 3 4 3 3 4 4 5 5 6 6 7 8 9 8 9 10 9 9 8
3 0 1 0 1 2 2 2 2 1 2 2 5 9 9 9 8 7 6 4 3 3 2 1 2 2 1 1 1 2 2 2 1 1 2 3 3 3 4 4 5 6 6 6 7 7 8 8 8
2 1 1 2 3 2 3 2 2 1 2 4 8 8 9 9 7 5 4 4 3 3 2 2 2 2 2 1 1 2 2 1 1 1 2 3 2 2 2 3 4 5 6 6 5 6 6 6 7
1 2 2 2 2 2 3 1 2 1 3 6 7 7 7 7 6 5 4 4 4 3 3 2 2 2 2 2 1 1 2 2 1 1 2 3 3 3 3 2 3 4 5 6 6 6 5 5 6
3 3 4 3 1 1 3 3 1 1 4 4 4 5 4 5 6 6 6 6 5 4 3 3 3 2 2 2 2 2 2 3 2 2 2 3 4 5 4 3 2 3 6 7 7 6 6 5 5
4 4 2 3 1 1 3 3 3 1 4 4 3 3 3 3 5 5 6 5 5 4 4 3 3 3 2 2 2 2 2 3 2 2 3 3 4 5 5 3 2 4 6 6 4 4 4 4 4
4 1 1 3 1 1 2 3 3 2 4 4 3 3 4 3 4 4 5 6 6 6 5 4 3 3 3 3 3 3 3 3 3 3 3 3 4 6 5 3 3 5 5 4 4 3 3 4 4
2 1 1 3 2 1 2 4 4 2 3 4 3 3 3 5 6 5 6 6 6 5 5 4 3 3 3 3 3 3 3 2 2 2 2 3 4 6 6 4 4 5 4 3 4 4 3 3 3
3 2 2 3 2 2 4 5 5 4 3 4 4 4 5 6 5 2 4 5 6 5 5 5 4 3 3 2 2 2 1 1 1 1 2 3 4 5 5 4 4 4 4 4 4 4 4 3 2
2 1 2 3 1 2 3 5 5 4 5 6 6 6 6 6 3 2 3 4 6 6 6 5 5 4 4 3 2 2 2 1 1 1 2 3 4 5 5 5 4 3 4 4 4 4 3 2 1
2 4 4 3 2 2 1 5 4 3 4 4 5 5 5 7 6 5 4 5 5 6 7 7 6 5 4 4 3 3 3 2 2 1 1 1 3 4 5 5 4 3 4 4 3 4 4 3 1
3 4 4 2 1 2 0 4 6 4 4 6 6 6 6 6 5 5 5 6 7 7 6 6 6 5 4 5 5 5 4 2 2 1 1 1 2 4 5 5 5 4 3 3 3 3 3 4 2
4 0 2 1 2 1 1 2 7 2 5 8 8 8 7 7 7 6 7 8 7 6 6 6 6 5 4 5 6 5 3 2 2 1 2 1 1 2 4 4 4 3 3 3 3 3 3 3 3
3 4 5 4 3 2 3 3 7 4 7 6 7 8 8 8 7 7 6 6 6 5 6 6 6 5 4 5 5 6 6 4 4 2 2 1 1 1 2 4 4 3 3 3 3 3 3 3 3
4 5 4 4 3 5 3 3 8 7 7 7 8 8 8 7 7 7 7 7 7 7 7 6 7 5 5 5 6 6 6 6 6 4 4 3 1 1 1 2 3 2 3 4 4 3 3 3 3
3 6 5 3 4 5 3 5 7 6 5 5 5 5 5 6 7 8 8 8 8 8 8 7 7 6 6 6 6 5 5 4 4 4 4 4 3 2 2 3 3 3 4 4 4 3 2 2 3
4 3 5 5 1 2 5 6 8 4 3 3 3 2 4 6 7 8 7 7 7 8 8 9 8 6 6 6 5 5 5 5 4 4 3 3 3 3 3 3 3 3 4 4 4 3 2 3 2
4 6 5 4 2 3 5 5 5 6 6 4 3 3 4 4 5 6 6 6 6 7 7 8 8 8 7 6 6 5 5 5 5 4 4 4 3 3 4 4 3 3 3 4 4 3 3 3 2
3 3 4 3 4 3 3 7 6 7 6 4 5 4 4 4 4 6 6 6 6 6 7 7 7 6 6 6 5 5 5 5 5 4 4 4 4 4 4 4 4 3 3 4 4 3 4 4 3
4 5 6 4 4 4 3 8 6 5 5 4 4 4 3 3 3 4 5 5 5 6 6 7 7 7 6 6 5 6 5 5 5 4 4 4 4 4 4 4 4 4 4 4 4 4 4 4 3
Wind_Direction
73 74 75 57 54 53 45 336 337 16 49 50 68 77 88 74 78 123 65 124 120 122 128 126 122 118 116 113 110 111 111 108 107 107 107 106 105 101 98 94 91 87 84 80 78 77 76 73 72
91 76 54 59 76 72 0 339 45 68 134 131 73 66 73 67 63 95 101 117 118 119 118 119 119 117 116 114 113 113 111 108 108 107 107 107 105 102 98 94 91 88 84 80 77 76 73 72 74
98 56 74 67 80 130 151 350 105 78 100 99 78 57 73 81 99 133 152 129 110 103 112 122 125 121 117 116 114 113 112 111 111 109 107 104 102 99 97 93 90 87 84 80 77 75 72 73 77
78 45 55 68 72 293 238 234 130 106 64 53 89 72 62 39 129 148 132 126 114 101 109 126 129 125 121 119 116 112 112 111 110 108 105 100 98 94 90 91 90 87 84 81 77 74 73 74 77
61 73 61 52 13 337 335 347 95 92 65 50 78 88 52 13 81 112 119 118 117 104 103 120 126 127 124 122 118 117 114 112 110 108 103 99 96 90 86 85 87 85 83 81 77 75 74 76 77
55 64 79 72 350 344 359 27 77 82 88 74 79 92 62 56 95 113 112 107 108 105 98 107 124 130 125 123 123 120 118 115 111 106 100 92 88 85 84 85 84 82 81 81 78 75 77 78 76
98 89 104 112 7 355 11 47 95 102 99 96 105 101 101 101 108 113 106 100 95 92 86 75 77 94 109 115 119 119 119 114 109 105 100 91 84 80 79 81 82 80 79 77 76 75 77 76 76
114 98 84 92 127 306 345 40 66 90 104 88 93 130 163 179 128 104 94 88 88 85 79 68 66 67 74 91 109 112 114 108 104 103 96 86 76 69 67 68 77 80 79 76 74 74 75 76 74
85 78 103 184 173 226 13 59 36 54 90 72 63 108 140 132 125 115 105 88 95 100 79 75 71 66 65 71 87 86 89 81 78 80 79 74 64 57 55 58 71 73 74 71 70 72 76 75 70
79 107 188 214 179 170 92 82 101 80 74 71 71 76 109 128 137 140 144 150 156 160 125 88 84 77 65 65 69 64 61 62 60 66 68 63 56 52 53 56 65 67 66 65 65 68 71 70 65
103 145 182 21 129 128 101 66 78 121 136 195 167 147 137 144 153 159 166 167 177 172 158 140 140 112 81 49 71 64 60 59 59 65 69 70 60 50 53 57 57 58 60 59 59 59 63 68 67
105 85 166 148 105 104 113 98 73 123 236 212 165 151 153 161 173 177 178 180 166 148 176 172 154 140 137 102 101 105 91 85 85 90 103 97 70 53 52 60 61 62 66 64 61 65 68 70 68
90 56 36 72 80 94 101 88 105 359 10 98 124 142 162 172 182 186 178 169 156 166 190 188 165 159 155 141 152 118 118 126 123 119 150 140 110 90 80 72 69 71 76 78 75 75 74 69 64
113 82 39 37 59 54 95 46 78 301 96 111 136 157 171 179 182 177 174 174 175 184 192 187 168 160 151 159 162 144 137 136 114 119 158 154 136 124 108 85 73 78 85 89 87 84 80 71 69
85 61 27 14 46 83 96 16 293 223 121 133 158 173 179 187 182 190 191 181 182 187 179 175 174 148 148 157 164 152 148 136 127 127 140 147 141 130 118 104 93 93 99 97 92 85 79 76 70
64 57 12 314 26 152 120 270 277 162 144 169 186 198 207 210 203 203 196 181 180 179 171 177 173 153 153 144 130 126 125 120 116 113 126 142 141 132 118 112 108 111 105 103 99 91 82 72 67
43 58 279 306 274 156 155 244 268 149 165 199 212 217 223 232 234 220 200 187 182 182 175 173 161 161 154 128 106 97 94 94 98 108 121 134 137 135 125 119 119 119 107 103 109 91 96 92 80
208 198 248 267 282 152 214 254 271 212 191 220 231 228 230 233 238 221 202 191 182 177 172 169 161 153 131 111 93 77 72 71 78 93 108 124 134 134 124 118 120 121 108 97 100 103 86 89 89
160 172 250 266 239 181 236 259 261 227 209 232 239 234 236 244 249 223 200 187 173 167 166 169 167 156 132 119 122 116 114 95 72 72 91 117 129 133 126 124 120 119 120 124 122 113 98 79 83
155 199 263 302 309 208 251 271 262 227 219 220 223 228 233 244 252 228 199 183 179 174 171 173 175 167 163 155 145 138 133 124 105 56 75 108 134 142 141 136 135 128 120 116 127 128 119 101 82
212 201 219 242 346 10 319 306 277 257 238 229 224 224 232 229 227 218 201 192 184 180 181 186 183 177 171 150 121 97 78 63 56 46 37 56 128 139 138 138 133 135 136 143 153 148 141 144 75
252 230 201 199 119 299 13 289 283 268 267 247 237 228 231 232 222 206 199 197 197 195 186 181 178 178 175 159 153 148 149 158 183 177 168 90 112 126 130 134 131 135 137 144 155 141 142 140 142
220 199 139 161 161 318 331 236 286 296 266 257 243 234 229 224 217 206 204 204 202 191 182 180 173 176 177 171 166 156 149 160 139 117 113 92 81 107 127 136 130 134 138 144 138 130 134 137 147
144 67 53 49 77 297 239 206 279 244 235 253 243 232 225 219 214 209 206 199 194 182 177 172 172 179 178 172 168 168 162 156 145 145 141 132 90 76 112 128 130 137 142 149 148 142 137 135 132
90 86 30 2 1 265 261 224 256 254 240 233 240 236 223 211 204 202 198 196 189 181 178 175 174 180 181 177 179 179 172 169 172 174 169 164 155 153 159 132 134 143 148 145 136 134 138 138 133
162 141 156 205 239 281 301 247 260 268 270 254 249 238 214 203 201 204 202 199 193 187 180 179 181 181 180 184 189 182 176 172 179 180 176 179 186 179 160 142 142 142 136 135 128 124 133 128 126
141 169 168 144 194 274 280 284 299 284 288 274 265 240 222 212 208 209 205 198 193 189 185 183 184 181 184 190 185 183 180 179 183 182 175 177 179 165 142 143 141 134 131 130 129 122 126 121 116
148 147 106 126 170 267 292 284 263 279 270 274 274 258 252 238 220 214 207 201 195 188 182 180 182 185 186 184 184 186 186 187 183 173 175 175 171 157 147 148 146 143 128 126 124 120 126 119 113
120 119 125 131 160 175 269 275 238 243 256 258 264 266 256 242 234 216 206 200 190 180 178 179 182 180 180 180 183 182 185 178 173 177 182 176 167 161 158 157 153 157 149 141 132 131 133 128 114
189 182 157 166 216 186 207 269 279 258 258 256 271 276 266 243 236 220 197 185 182 184 185 184 181 183 186 182 182 183 175 166 172 178 180 165 157 155 159 157 157 160 155 151 151 148 140 136 131
Height
1509 1509 1509 1511 1513 1522 1524 1520 1517 1516 1516 1517 1516 1517 1519 1522 1526 1531 1527 1526 1526 1527 1528 1529 1530 1531 1531 1532 1533 1533 1533 1533 1534 1534 1534 1535 1536 1536 1537 1537 1537 1538 1538 1538 1538 1538 1539 1539 1539
1509 1510 1511 1512 1520 1530 1527 1519 1518 1516 1517 1517 1518 1519 1521 1523 1524 1525 1526 1527 1527 1528 1529 1530 1531 1532 1532 1533 1534 1534 1534 1535 1535 1535 1536 1537 1537 1538 1538 1538 1539 1539 1539 1539 1539 1540 1540 1540 1541
1510 1511 1512 1515 1523 1529 1525 1519 1518 1517 1518 1518 1519 1521 1523 1525 1525 1526 1527 1527 1528 1529 1530 1531 1532 1532 1533 1534 1535 1535 1535 1536 1536 1537 1537 1538 1539 1539 1539 1540 1540 1540 1540 1541 1541 1541 1542 1542 1542
1511 1513 1514 1520 1525 1523 1520 1518 1518 1518 1518 1519 1520 1523 1525 1527 1527 1527 1528 1529 1530 1530 1531 1531 1533 1534 1534 1535 1536 1536 1537 1537 1538 1538 1539 1539 1540 1540 1541 1541 1541 1541 1542 1542 1542 1542 1543 1543 1543
1512 1513 1520 1526 1524 1521 1519 1518 1517 1518 1520 1521 1522 1524 1527 1528 1528 1528 1529 1530 1531 1532 1532 1533 1534 1535 1536 1536 1537 1538 1538 1539 1539 1540 1540 1541 1541 1542 1542 1542 1542 1542 1543 1543 1543 1544 1544 1544 1545
1513 1515 1527 1531 1526 1521 1519 1519 1519 1520 1521 1523 1524 1525 1528 1529 1529 1530 1531 1531 1533 1533 1534 1535 1536 1536 1537 1538 1538 1539 1540 1540 1541 1541 1542 1542 1543 1543 1543 1543 1544 1544 1544 1544 1545 1545 1546 1546 1546
1515 1520 1527 1528 1527 1523 1521 1520 1520 1521 1522 1524 1524 1526 1529 1530 1531 1531 1532 1533 1534 1535 1535 1536 1537 1538 1538 1539 1540 1541 1541 1542 1543 1543 1543 1544 1544 1544 1545 1545 1545 1545 1546 1546 1547 1547 1547 1547 1548
1515 1520 1526 1528 1528 1525 1522 1521 1522 1522 1523 1525 1525 1527 1529 1530 1531 1532 1533 1534 1535 1536 1537 1538 1538 1539 1540 1540 1541 1542 1543 1543 1544 1545 1545 1546 1546 1546 1546 1547 1547 1547 1548 1548 1548 1549 1549 1549 1549
1516 1524 1530 1527 1527 1524 1522 1522 1523 1523 1524 1525 1526 1527 1528 1530 1531 1533 1534 1535 1536 1537 1538 1539 1539 1540 1541 1542 1543 1543 1544 1545 1546 1546 1547 1547 1548 1548 1549 1549 1549 1549 1550 1550 1550 1550 1550 1551 1551
1517 1527 1526 1523 1522 1522 1522 1523 1524 1524 1525 1526 1527 1528 1529 1530 1531 1533 1534 1535 1536 1538 1539 1540 1540 1541 1542 1543 1544 1544 1545 1546 1547 1548 1548 1549 1550 1550 1550 1550 1551 1551 1551 1552 1552 1552 1552 1552 1552
1518 1523 1522 1522 1522 1522 1523 1524 1524 1525 1527 1526 1527 1527 1529 1530 1532 1533 1534 1535 1537 1538 1539 1540 1541 1542 1543 1544 1545 1546 1547 1548 1549 1549 1550 1550 1551 1551 1552 1552 1552 1553 1553 1553 1553 1553 1553 1554 1554
1520 1521 1521 1522 1522 1523 1523 1524 1525 1525 1527 1526 1527 1527 1529 1530 1532 1533 1534 1536 1537 1538 1540 1541 1542 1543 1544 1545 1546 1547 1548 1549 1550 1551 1551 1552 1552 1553 1553 1553 1554 1554 1555 1555 1555 1555 1555 1555 1555
1521 1522 1522 1522 1522 1523 1524 1525 1526 1526 1526 1526 1527 1528 1529 1530 1532 1533 1535 1536 1538 1539 1540 1541 1542 1543 1545 1546 1547 1548 1549 1550 1551 1552 1552 1553 1553 1554 1554 1555 1555 1555 1556 1556 1556 1556 1556 1556 1556
1522 1522 1523 1523 1523 1524 1525 1526 1526 1527 1527 1527 1528 1529 1530 1531 1532 1533 1535 1536 1537 1539 1540 1541 1543 1544 1545 1546 1547 1549 1550 1550 1551 1552 1553 1554 1554 1555 1555 1556 1556 1556 1557 1557 1557 1557 1557 1557 1558
1522 1524 1525 1524 1524 1525 1526 1528 1527 1527 1527 1527 1528 1529 1530 1531 1532 1533 1534 1536 1537 1539 1540 1541 1543 1544 1545 1547 1548 1549 1550 1551 1552 1553 1554 1554 1555 1555 1556 1556 1557 1557 1557 1558 1558 1558 1558 1559 1559
1524 1529 1533 1527 1525 1526 1530 1534 1527 1527 1527 1528 1528 1529 1530 1531 1532 1533 1534 1535 1537 1539 1540 1542 1543 1544 1546 1547 1548 1550 1550 1551 1552 1553 1554 1555 1555 1556 1556 1557 1558 1558 1558 1559 1559 1559 1559 1560 1560
1531 1537 1535 1531 1526 1526 1529 1531 1527 1527 1527 1528 1528 1529 1530 1530 1531 1532 1533 1535 1536 1538 1540 1541 1543 1544 1546 1547 1549 1550 1551 1552 1553 1553 1554 1555 1555 1556 1557 1557 1558 1559 1559 1559 1560 1560 1560 1561 1561
1537 1536 1535 1533 1527 1527 1530 1530 1527 1527 1527 1527 1528 1528 1529 1529 1530 1531 1532 1534 1535 1537 1539 1541 1543 1544 1546 1547 1548 1550 1551 1552 1553 1554 1554 1555 1556 1556 1557 1558 1558 1559 1559 1560 1561 1561 1561 1561 1561
1530 1533 1535 1531 1526 1528 1530 1529 1527 1526 1526 1527 1527 1527 1528 1528 1529 1530 1531 1533 1534 1536 1538 1540 1542 1544 1545 1547 1548 1549 1550 1551 1553 1554 1554 1555 1556 1556 1557 1558 1558 1559 1560 1560 1561 1561 1561 1562 1562
1529 1534 1534 1530 1526 1528 1530 1529 1525 1524 1524 1524 1524 1525 1526 1526 1527 1528 1529 1531 1533 1534 1536 1539 1541 1543 1544 1546 1548 1549 1550 1551 1552 1553 1554 1555 1556 1557 1557 1558 1558 1559 1560 1560 1561 1561 1561 1562 1562
1530 1532 1532 1532 1529 1528 1530 1531 1526 1523 1522 1522 1523 1523 1524 1524 1525 1526 1528 1530 1531 1533 1535 1537 1540 1542 1543 1545 1547 1548 1550 1551 1552 1553 1554 1555 1556 1557 1557 1558 1558 1559 1559 1560 1560 1561 1561 1561 1562
1532 1525 1527 1529 1535 1540 1535 1544 1528 1524 1522 1520 1519 1520 1520 1522 1523 1524 1526 1528 1530 1532 1534 1536 1538 1540 1542 1544 1545 1547 1548 1549 1550 1552 1553 1554 1555 1556 1557 1558 1558 1559 1559 1559 1560 1560 1561 1561 1562
1526 1523 1525 1529 1534 1540 1538 1543 1534 1525 1523 1518 1516 1516 1517 1519 1520 1522 1524 1526 1528 1531 1533 1535 1537 1539 1541 1542 1544 1546 1547 1548 1550 1551 1552 1554 1555 1556 1556 1557 1558 1558 1559 1559 1560 1560 1561 1561 1561
1522 1526 1530 1535 1540 1548 1539 1542 1537 1526 1519 1514 1512 1512 1514 1515 1517 1519 1522 1524 1526 1529 1531 1533 1535 1537 1539 1541 1542 1544 1545 1547 1549 1550 1551 1552 1554 1555 1556 1556 1557 1557 1558 1559 1559 1560 1560 1560 1561
1524 1536 1549 1550 1554 1550 1537 1538 1533 1516 1512 1510 1509 1508 1510 1512 1514 1516 1518 1521 1523 1526 1528 1531 1533 1535 1537 1539 1541 1543 1544 1546 1547 1549 1550 1551 1553 1554 1555 1556 1556 1557 1557 1558 1559 1559 1560 1560 1560
1526 1532 1549 1556 1557 1550 1538 1538 1524 1510 1508 1507 1507 1507 1507 1509 1511 1513 1515 1517 1520 1523 1526 1528 1531 1533 1535 1537 1539 1541 1543 1544 1546 1547 1549 1550 1551 1553 1554 1555 1555 1556 1557 1557 1558 1558 1559 1559 1559
1527 1532 1532 1544 1546 1550 1543 1532 1518 1509 1507 1506 1505 1505 1506 1506 1508 1510 1512 1515 1517 1520 1523 1526 1528 1531 1533 1535 1538 1539 1541 1543 1544 1546 1547 1549 1550 1552 1553 1554 1555 1555 1556 1556 1557 1557 1558 1558 1559
1520 1527 1537 1544 1551 1553 1543 1535 1528 1512 1508 1505 1505 1505 1505 1506 1507 1508 1510 1512 1515 1518 1521 1523 1526 1528 1531 1533 1536 1538 1540 1541 1543 1544 1546 1547 1549 1550 1551 1553 1554 1554 1555 1556 1556 1557 1557 1557 1558
1524 1528 1533 1542 1544 1551 1550 1538 1512 1509 1506 1505 1504 1504 1504 1504 1505 1506 1508 1510 1513 1516 1518 1521 1524 1526 1529 1532 1534 1536 1537 1539 1541 1543 1544 1546 1547 1549 1550 1551 1552 1553 1554 1555 1555 1556 1556 1557 1557
1518 1522 1530 1539 1542 1544 1547 1535 1505 1505 1503 1503 1503 1503 1503 1503 1504 1504 1506 1508 1511 1513 1516 1519 1521 1524 1527 1529 1532 1534 1536 1537 1539 1541 1542 1544 1546 1547 1548 1550 1551 1552 1553 1553 1554 1555 1555 1556 1556